| time (UTC) | temp F | wind direction | speed MPH | gust MPH | rain 1hr in | rain 24hr in | rain mn in | humidity % | barometer mb |
| 20260505023804 | 63 | 299 | 1.0 | 2.0 | 0.00 | 0.18 | 0.00 | 89 | 1010.4 |
| 20260505023303 | 63 | 296 | 0.0 | 2.0 | 0.00 | 0.18 | 0.00 | 89 | 1010.5 |
| 20260505021804 | 63 | 296 | 0.0 | 2.0 | 0.00 | 0.18 | 0.00 | 89 | 1010.5 |
| 20260505021304 | 63 | 314 | 1.0 | 3.0 | 0.00 | 0.18 | 0.00 | 89 | 1010.4 |
| 20260505020804 | 63 | 306 | 1.0 | 2.0 | 0.00 | 0.18 | 0.00 | 89 | 1010.4 |
| 20260505020304 | 63 | 313 | 0.0 | 2.0 | 0.00 | 0.18 | 0.00 | 89 | 1010.4 |
| 20260505015805 | 63 | 309 | 0.0 | 0.0 | 0.00 | 0.18 | 0.00 | 89 | 1010.4 |
| 20260505015304 | 63 | 309 | 0.0 | 1.0 | 0.00 | 0.18 | 0.00 | 89 | 1010.4 |
| 20260505014804 | 63 | 309 | 0.0 | 0.0 | 0.00 | 0.18 | 0.00 | 89 | 1010.3 |
| 20260505014304 | 63 | 309 | 0.0 | 1.0 | 0.00 | 0.18 | 0.00 | 89 | 1010.3 |
| 20260505013804 | 63 | 309 | 0.0 | 2.0 | 0.00 | 0.18 | 0.00 | 89 | 1010.3 |
| 20260505013304 | 63 | 309 | 0.0 | 3.0 | 0.00 | 0.18 | 0.00 | 88 | 1010.3 |
| 20260505012804 | 63 | 312 | 1.0 | 3.0 | 0.00 | 0.18 | 0.00 | 88 | 1010.3 |
| 20260505012304 | 63 | 308 | 0.0 | 2.0 | 0.00 | 0.18 | 0.00 | 88 | 1010.3 |
| 20260505011804 | 63 | 308 | 0.0 | 2.0 | 0.00 | 0.18 | 0.00 | 88 | 1010.4 |
| 20260505011304 | 63 | 307 | 0.0 | 1.0 | 0.00 | 0.18 | 0.00 | 88 | 1010.4 |
| 20260505010804 | 64 | 308 | 1.0 | 3.0 | 0.00 | 0.18 | 0.00 | 88 | 1010.4 |
| 20260505010304 | 64 | 320 | 1.0 | 3.0 | 0.00 | 0.18 | 0.00 | 88 | 1010.5 |
| 20260505005305 | 64 | 311 | 1.0 | 3.0 | 0.00 | 0.18 | 0.00 | 88 | 1010.6 |
| 20260505004804 | 64 | 313 | 1.0 | 3.0 | 0.00 | 0.18 | 0.00 | 87 | 1010.7 |
| 20260505003804 | 64 | 313 | 1.0 | 3.0 | 0.00 | 0.18 | 0.00 | 87 | 1010.8 |
| 20260505002804 | 64 | 316 | 0.0 | 2.0 | 0.00 | 0.18 | 0.00 | 87 | 1010.8 |
| 20260505002304 | 64 | 315 | 0.0 | 0.0 | 0.00 | 0.18 | 0.00 | 86 | 1010.8 |
| 20260505001803 | 65 | 315 | 0.0 | 0.0 | 0.00 | 0.18 | 0.00 | 86 | 1010.8 |
| 20260505001303 | 65 | 315 | 0.0 | 1.0 | 0.00 | 0.18 | 0.00 | 86 | 1010.9 |
| 20260505000303 | 65 | 313 | 1.0 | 2.0 | 0.00 | 0.18 | 0.00 | 86 | 1011.0 |
| 20260504235805 | 66 | 314 | 1.0 | 2.0 | 0.00 | 0.18 | 0.00 | 86 | 1011.0 |
| 20260504234803 | 66 | 337 | 1.0 | 3.0 | 0.00 | 0.18 | 0.00 | 86 | 1011.0 |
| 20260504233804 | 66 | 332 | 1.0 | 3.0 | 0.00 | 0.18 | 0.00 | 86 | 1011.0 |
| 20260504233304 | 66 | 333 | 1.0 | 3.0 | 0.00 | 0.18 | 0.00 | 86 | 1011.0 |
| 20260504232804 | 66 | 332 | 1.0 | 5.0 | 0.00 | 0.18 | 0.00 | 86 | 1011.0 |
| 20260504232304 | 66 | 21 | 1.0 | 2.0 | 0.00 | 0.18 | 0.00 | 86 | 1011.0 |
| 20260504231805 | 66 | 22 | 2.0 | 3.0 | 0.00 | 0.18 | 0.00 | 86 | 1011.0 |
| 20260504230804 | 66 | 22 | 1.0 | 3.0 | 0.00 | 0.18 | 0.00 | 86 | 1011.0 |
| 20260504230304 | 66 | 22 | 1.0 | 3.0 | 0.00 | 0.18 | 0.00 | 86 | 1011.0 |
| 20260504225804 | 67 | 23 | 2.0 | 5.0 | 0.00 | 0.18 | 0.00 | 86 | 1011.0 |
| 20260504225304 | 66 | 27 | 2.0 | 3.0 | 0.00 | 0.18 | 0.00 | 86 | 1010.9 |
| 20260504224804 | 66 | 23 | 2.0 | 3.0 | 0.00 | 0.18 | 0.00 | 87 | 1011.0 |
| 20260504224304 | 66 | 27 | 2.0 | 3.0 | 0.00 | 0.18 | 0.00 | 87 | 1011.0 |
| 20260504223804 | 66 | 27 | 1.0 | 5.0 | 0.00 | 0.18 | 0.00 | 87 | 1010.9 |
| 20260504223304 | 66 | 22 | 2.0 | 3.0 | 0.00 | 0.18 | 0.00 | 87 | 1010.9 |
| 20260504222804 | 67 | 24 | 3.0 | 6.0 | 0.00 | 0.18 | 0.00 | 87 | 1011.0 |
| 20260504222305 | 67 | 348 | 3.0 | 6.0 | 0.00 | 0.18 | 0.00 | 87 | 1010.9 |
| 20260504221804 | 67 | 57 | 1.0 | 3.0 | 0.00 | 0.18 | 0.00 | 88 | 1010.8 |
| 20260504221304 | 67 | 58 | 3.0 | 3.0 | 0.00 | 0.18 | 0.00 | 88 | 1010.8 |
| 20260504220818 | 67 | 57 | 1.0 | 3.0 | 0.00 | 0.18 | 0.00 | 87 | 1010.8 |
| 20260504220304 | 67 | 57 | 0.0 | 3.0 | 0.00 | 0.18 | 0.00 | 88 | 1010.8 |
| 20260504215804 | 67 | 58 | 2.0 | 3.0 | 0.00 | 0.18 | 0.18 | 88 | 1010.8 |
| 20260504215305 | 67 | 57 | 2.0 | 3.0 | 0.00 | 0.18 | 0.18 | 88 | 1010.7 |
| 20260504214804 | 67 | 57 | 0.0 | 0.0 | 0.00 | 0.18 | 0.18 | 88 | 1010.7 |
| 20260504214304 | 67 | 57 | 0.0 | 2.0 | 0.00 | 0.18 | 0.18 | 87 | 1010.8 |
| 20260504213804 | 67 | 57 | 0.0 | 3.0 | 0.00 | 0.18 | 0.18 | 88 | 1010.8 |
| 20260504213304 | 67 | 57 | 0.0 | 3.0 | 0.00 | 0.18 | 0.18 | 87 | 1010.7 |
| 20260504212803 | 67 | 58 | 1.0 | 5.0 | 0.00 | 0.18 | 0.18 | 87 | 1010.7 |
| 20260504211803 | 67 | 56 | 1.0 | 3.0 | 0.00 | 0.18 | 0.18 | 87 | 1010.6 |
| 20260504211304 | 67 | 56 | 2.0 | 3.0 | 0.00 | 0.18 | 0.18 | 87 | 1010.6 |
| 20260504210303 | 67 | 60 | 2.0 | 3.0 | 0.00 | 0.18 | 0.18 | 86 | 1010.6 |
| 20260504205304 | 68 | 59 | 2.0 | 5.0 | 0.00 | 0.18 | 0.18 | 86 | 1010.4 |
| 20260504204803 | 68 | 61 | 1.0 | 3.0 | 0.00 | 0.18 | 0.18 | 86 | 1010.4 |
| 20260504204304 | 68 | 50 | 1.0 | 3.0 | 0.00 | 0.18 | 0.18 | 86 | 1010.3 |
| 20260504203803 | 68 | 40 | 2.0 | 5.0 | 0.00 | 0.18 | 0.18 | 86 | 1010.2 |
| 20260504203304 | 68 | 36 | 2.0 | 3.0 | 0.00 | 0.18 | 0.18 | 86 | 1010.1 |
| 20260504202804 | 68 | 38 | 2.0 | 3.0 | 0.00 | 0.18 | 0.18 | 86 | 1010.0 |
| 20260504202304 | 68 | 40 | 2.0 | 6.0 | 0.00 | 0.18 | 0.18 | 85 | 1010.0 |
| 20260504201804 | 68 | 54 | 1.0 | 5.0 | 0.00 | 0.18 | 0.18 | 85 | 1009.9 |
| 20260504201304 | 68 | 49 | 3.0 | 3.0 | 0.00 | 0.18 | 0.18 | 85 | 1009.9 |
| 20260504200804 | 68 | 53 | 1.0 | 3.0 | 0.00 | 0.18 | 0.18 | 85 | 1009.7 |
| 20260504200304 | 68 | 44 | 1.0 | 5.0 | 0.00 | 0.18 | 0.18 | 85 | 1009.7 |
| 20260504195804 | 68 | 53 | 2.0 | 3.0 | 0.00 | 0.18 | 0.18 | 85 | 1009.6 |
| 20260504195304 | 68 | 53 | 2.0 | 6.0 | 0.00 | 0.18 | 0.18 | 85 | 1009.5 |
| 20260504194303 | 68 | 57 | 4.0 | 9.0 | 0.00 | 0.18 | 0.18 | 84 | 1009.2 |
| 20260504193804 | 68 | 34 | 5.0 | 9.0 | 0.00 | 0.18 | 0.18 | 84 | 1009.2 |
| 20260504193304 | 68 | 39 | 6.0 | 12.0 | 0.00 | 0.18 | 0.18 | 84 | 1009.1 |
| 20260504192304 | 68 | 30 | 5.0 | 10.0 | 0.00 | 0.18 | 0.18 | 83 | 1009.0 |
| 20260504191303 | 69 | 37 | 6.0 | 14.0 | 0.00 | 0.18 | 0.18 | 82 | 1008.8 |
| 20260504190804 | 69 | 17 | 6.0 | 10.0 | 0.00 | 0.18 | 0.18 | 81 | 1008.8 |
| 20260504190303 | 70 | 3 | 7.0 | 12.0 | 0.00 | 0.18 | 0.18 | 80 | 1008.7 |
| 20260504185805 | 71 | 9 | 8.0 | 17.0 | 0.00 | 0.18 | 0.18 | 78 | 1008.6 |
| 20260504185304 | 72 | 1 | 7.0 | 13.0 | 0.00 | 0.18 | 0.18 | 77 | 1008.5 |
| 20260504184804 | 72 | 10 | 5.0 | 10.0 | 0.00 | 0.18 | 0.18 | 76 | 1008.3 |
| 20260504184303 | 73 | 2 | 6.0 | 9.0 | 0.00 | 0.18 | 0.18 | 75 | 1008.2 |
| 20260504183804 | 73 | 147 | 2.0 | 5.0 | 0.00 | 0.18 | 0.18 | 74 | 1008.0 |
| 20260504183304 | 73 | 148 | 0.0 | 0.0 | 0.00 | 0.18 | 0.18 | 74 | 1007.9 |
| 20260504182304 | 73 | 148 | 2.0 | 6.0 | 0.00 | 0.18 | 0.18 | 75 | 1007.7 |
| 20260504181803 | 73 | 148 | 3.0 | 6.0 | 0.00 | 0.18 | 0.18 | 75 | 1007.6 |
| 20260504181304 | 73 | 148 | 3.0 | 6.0 | 0.00 | 0.18 | 0.18 | 76 | 1007.6 |
| 20260504180804 | 73 | 146 | 5.0 | 6.0 | 0.00 | 0.18 | 0.18 | 76 | 1007.5 |
| 20260504180304 | 73 | 146 | 4.0 | 6.0 | 0.00 | 0.18 | 0.18 | 76 | 1007.4 |
| 20260504175804 | 73 | 134 | 6.0 | 10.0 | 0.00 | 0.18 | 0.18 | 76 | 1007.4 |
| 20260504175304 | 73 | 141 | 6.0 | 8.0 | 0.00 | 0.18 | 0.18 | 75 | 1007.4 |
| 20260504174803 | 74 | 157 | 6.0 | 10.0 | 0.00 | 0.18 | 0.18 | 75 | 1007.5 |
| 20260504174305 | 74 | 140 | 6.0 | 8.0 | 0.00 | 0.18 | 0.18 | 74 | 1007.5 |
| 20260504173804 | 74 | 139 | 5.0 | 7.0 | 0.00 | 0.18 | 0.18 | 75 | 1007.5 |
| 20260504172305 | 74 | 140 | 7.0 | 12.0 | 0.00 | 0.18 | 0.18 | 75 | 1007.4 |
| 20260504170805 | 74 | 63 | 6.0 | 12.0 | 0.00 | 0.18 | 0.18 | 73 | 1007.5 |
| 20260504170304 | 74 | 118 | 6.0 | 12.0 | 0.00 | 0.18 | 0.18 | 73 | 1007.5 |
| 20260504150305 | 74 | 94 | 9.0 | 14.0 | 0.00 | 0.18 | 0.18 | 72 | 1008.1 |
| 20260504141305 | 74 | 130 | 6.0 | 14.0 | 0.00 | 0.18 | 0.18 | 71 | 1008.6 |
| 20260504140804 | 74 | 56 | 7.0 | 13.0 | 0.00 | 0.18 | 0.18 | 71 | 1008.7 |
| 20260504140304 | 74 | 85 | 6.0 | 12.0 | 0.00 | 0.18 | 0.18 | 72 | 1008.8 |
| 20260504130305 | 72 | 156 | 6.0 | 10.0 | 0.00 | 0.18 | 0.18 | 78 | 1009.7 |
| 20260504120305 | 69 | 103 | 4.0 | 7.0 | 0.01 | 0.18 | 0.18 | 86 | 1010.4 |
| 20260504110304 | 67 | 166 | 0.0 | 1.0 | 0.01 | 0.17 | 0.17 | 88 | 1011.1 |
| 20260504081804 | 68 | 156 | 1.0 | 2.0 | 0.00 | 0.03 | 0.00 | 78 | 1011.1 |
| 20260504081304 | 68 | 157 | 0.0 | 2.0 | 0.00 | 0.03 | 0.00 | 77 | 1011.2 |
| 20260504080805 | 68 | 156 | 0.0 | 1.0 | 0.00 | 0.03 | 0.00 | 78 | 1011.1 |
| 20260504080304 | 68 | 157 | 0.0 | 2.0 | 0.00 | 0.03 | 0.00 | 78 | 1011.2 |
| 20260504070304 | 65 | 156 | 1.0 | 5.0 | 0.00 | 0.03 | 0.00 | 87 | 1011.2 |
| 20260504050304 | 63 | 148 | 1.0 | 3.0 | 0.00 | 0.03 | 0.00 | 88 | 1010.7 |
| 20260504045804 | 63 | 148 | 0.0 | 0.0 | 0.00 | 0.03 | 0.00 | 88 | 1010.8 |
| 20260504045304 | 63 | 148 | 0.0 | 1.0 | 0.00 | 0.03 | 0.00 | 88 | 1010.8 |
| 20260504044805 | 63 | 148 | 1.0 | 2.0 | 0.00 | 0.03 | 0.00 | 88 | 1010.7 |
| 20260504044304 | 63 | 148 | 0.0 | 2.0 | 0.00 | 0.03 | 0.00 | 88 | 1010.8 |
| 20260504043804 | 63 | 148 | 0.0 | 0.0 | 0.00 | 0.03 | 0.00 | 88 | 1010.8 |
| 20260504043305 | 63 | 148 | 0.0 | 0.0 | 0.00 | 0.03 | 0.00 | 88 | 1010.8 |
| 20260504042804 | 63 | 148 | 0.0 | 0.0 | 0.00 | 0.03 | 0.00 | 88 | 1010.8 |
| 20260504041804 | 63 | 148 | 1.0 | 3.0 | 0.00 | 0.03 | 0.00 | 88 | 1011.0 |
| 20260504041304 | 63 | 148 | 0.0 | 0.0 | 0.00 | 0.03 | 0.00 | 88 | 1011.0 |
| 20260504040804 | 63 | 148 | 0.0 | 0.0 | 0.00 | 0.03 | 0.00 | 88 | 1011.0 |
| 20260504040304 | 63 | 148 | 0.0 | 0.0 | 0.00 | 0.03 | 0.00 | 88 | 1010.9 |
| 20260504035804 | 63 | 148 | 0.0 | 0.0 | 0.00 | 0.03 | 0.00 | 88 | 1011.1 |
| 20260504035305 | 63 | 148 | 0.0 | 0.0 | 0.00 | 0.03 | 0.00 | 88 | 1011.1 |
| 20260504034304 | 64 | 148 | 0.0 | 0.0 | 0.00 | 0.03 | 0.00 | 88 | 1011.3 |
| 20260504033804 | 64 | 148 | 0.0 | 0.0 | 0.00 | 0.03 | 0.00 | 88 | 1011.4 |
| 20260504033304 | 64 | 148 | 0.0 | 2.0 | 0.00 | 0.03 | 0.00 | 88 | 1011.5 |
| 20260504032804 | 64 | 148 | 0.0 | 2.0 | 0.00 | 0.03 | 0.00 | 88 | 1011.6 |
| 20260504032304 | 64 | 148 | 0.0 | 2.0 | 0.00 | 0.03 | 0.00 | 88 | 1011.6 |
| 20260504031804 | 64 | 148 | 0.0 | 1.0 | 0.00 | 0.03 | 0.00 | 88 | 1011.7 |
| 20260504031304 | 64 | 148 | 0.0 | 2.0 | 0.00 | 0.03 | 0.00 | 87 | 1011.7 |
| 20260504025804 | 64 | 148 | 0.0 | 0.0 | 0.00 | 0.03 | 0.00 | 87 | 1011.9 |
| 20260504025304 | 64 | 148 | 0.0 | 2.0 | 0.00 | 0.03 | 0.00 | 87 | 1011.9 |